Skip Page Navigation
NASA JPL Caltech
NASA Logo - Jet Propulsion Laboratory + View the NASA Portal
+ Near-Earth Object (NEO) Program
Search JPL
JPL Home Earth Solar System Stars & Galaxies Technology
JPL Solar System Dynamics
BODIES ORBITS EPHEMERIDES TOOLS PHYSICAL DATA DISCOVERY FAQ SITE MAP
JPL Small-Body Database Browser
Search: [ help ]  
(2005 WA1)
Classification: Apollo [NEO, PHA]          SPK-ID: 3303218
Ephemeris | Orbit Diagram | Orbital Elements | Physical Parameters | Close-Approach Data ]

[ hide orbit diagram ]
Orbit Diagram
Note: Make sure you have Java enabled on your browser to see the applet. This applet is provided as a 3D orbit visualization tool. The applet was implemented using 2-body methods, and hence should not be used for determining accurate long-term trajectories (over several years or decades) or planetary encounter circumstances. For accurate long-term ephemerides, please instead use our Horizons system.
Orbit Viewer

Additional Notes: the orbits shown in the applet are color coded. The planets are white lines, and the asteroid/comet is a blue line. The bright white line indicates the portion of the orbit that is above the ecliptic plane, and the darker portion is below the ecliptic plane. Likewise for the asteroid/comet orbit, the light blue indicates the portion above the ecliptic plane, and the dark blue the portion below the ecliptic plane.

Orbit Viewer applet originally written and kindly provided by Osamu Ajiki (AstroArts), and further modified by Ron Baalke (JPL).


Orbital Elements at Epoch 2456400.5 (2013-Apr-18.0) TDB
Reference: JPL 22 (heliocentric ecliptic J2000)
 Element Value Uncertainty (1-sigma)   Units 
e .5849369457484893 6.7401e-07  
a 2.007415652633699 3.0692e-06 AU
q .8332040719344327 2.7177e-07 AU
i 10.93571560578854 2.3837e-05 deg
node 247.2964957753881 9.1012e-06 deg
peri 241.6097330821298 4.7069e-05 deg
M 199.095546268075 0.0020923 deg
tp 2456864.822736888358
(2014-Jul-26.32273689)
0.0071026 JED
period 1038.853688651153
2.84
0.0023825
6.523e-06
d
yr
n .3465358056988986 7.9473e-07 deg/d
Q 3.181627233332965 4.8644e-06 AU
  Orbit Determination Parameters
   # obs. used (total)      123  
   # delay obs. used      1  
   # Doppler obs. used      3  
   data-arc span      195 days  
   first obs. used      2005-11-12  
   last obs. used      2006-05-26  
   planetary ephem.      DE405  
   SB-pert. ephem.      SB405-CPV-2  
   condition code      2  
   fit RMS      .59271  
   data source      ORB  
   producer      Otto Matic  
   solution date      2011-Sep-14 20:05:58  

Additional Information
 Earth MOID = .02053 AU 
 T_jup = 3.581 
[ show covariance matrix ]

Ephemeris | Orbit Diagram | Orbital Elements | Physical Parameters | Close-Approach Data ]

Physical Parameter Table
Parameter Symbol Value Units Sigma Reference Notes
absolute magnitude H 21.541 mag .5096 22 autocmod 2.5a

[ show close-approach data ]
Ephemeris | Orbit Diagram | Orbital Elements | Physical Parameters | Close-Approach Data ]
ABOUT SSD CREDITS/AWARDS PRIVACY/COPYRIGHT GLOSSARY LINKS
FirstGov 2013-Jun-19 10:17 UT
(server date/time)  
NASA Home Page
Site Manager:   Donald K. Yeomans
Webmaster  Alan B. Chamberlin